McConnell AFB, KS

6:37 PM CST on January 24, 2017 (GMT -0600)
McConnell Air Force Base

Weather History for KIAB - July, 2013

Change the Weather History Date:

Thursday, July 18, 2013

  Actual Average Record
Temperature  
Mean Temperature 80 °F -  
Max Temperature 91 °F 89 °F 107 °F (2006)
Min Temperature 71 °F 68 °F 60 °F (2014)
Cooling Degree Days 16    
Growing Degree Days 30 (Base 50)    
Moisture  
Dew Point 71 °F    
Average Humidity 74    
Maximum Humidity 100    
Minimum Humidity 49    
Precipitation  
Precipitation 0.00 in - - ()
Sea Level Pressure  
Sea Level Pressure 30.13 in    
Wind  
Wind Speed 7 mph (SSE)    
Max Wind Speed 16 mph    
Max Gust Speed 23 mph    
Visibility 10 miles    
Events      
Averages and records for this station are not official NWS values.
T = Trace of Precipitation, MM = Missing Value Source: NWS Daily Summary

Daily Weather History Graph

Daily Weather History Graph

Search for Another Location

Airport or City:

Trip Planner

Search our weather history database for the weather conditions in past years. The results will help you decide how hot, cold, wet, or windy it might be!

Date:

Astronomy

Jul. 18, 2013 Rise Set
Actual Time 6:21 AM CDT 8:48 PM CDT
Civil Twilight 5:51 AM CDT 9:18 PM CDT
Nautical Twilight 5:14 AM CDT 9:55 PM CDT
Astronomical Twilight 4:33 AM CDT 10:36 PM CDT
Moon 4:47 PM CDT (7/18) 2:12 AM CDT (7/18)
Length of Visible Light 15h 26m
Length of Day
14h 26m
Waxing Gibbous, 77% of the Moon is Illuminated
Jul 18
Waxing Gibbous
Jul 22
Full
Jul 29
Last Quarter
Aug 6
New
Aug 14
First Quarter

Hourly Weather History & Observations

Time (CDT) Temp. Heat Index Dew Point Humidity Pressure Visibility Wind Dir Wind Speed Gust Speed Precip Events Conditions
12:58 AM 74.1 °F - 73.0 °F 96% 30.21 in 10.0 mi South 4.6 mph - N/A   Clear
1:58 AM 73.4 °F - 73.2 °F 99% 30.20 in 10.0 mi SSE 4.6 mph - N/A   Clear
2:58 AM 73.8 °F - 72.5 °F 96% 30.19 in 10.0 mi SSE 3.5 mph - N/A   Clear
3:58 AM 72.7 °F - 72.7 °F 100% 30.19 in 10.0 mi SSE 2.3 mph - N/A   Clear
4:58 AM 71.8 °F - 71.8 °F 100% 30.19 in 10.0 mi SE 2.3 mph - N/A   Clear
5:58 AM 71.6 °F - 71.6 °F 100% 30.19 in 10.0 mi Calm Calm - N/A   Clear
6:58 AM 71.1 °F - 71.1 °F 100% 30.19 in 10.0 mi ESE 2.3 mph - N/A   Clear
7:58 AM 74.5 °F - 72.9 °F 95% 30.19 in 10.0 mi SE 4.6 mph - N/A   Clear
8:56 AM 78.8 °F - 73.4 °F 83% 30.22 in 10.0 mi South 8.1 mph - N/A   Clear
9:56 AM 81.0 °F 86.3 °F 74.3 °F 80% 30.18 in 10.0 mi South 9.2 mph - N/A   Clear
10:56 AM 84.0 °F 91.2 °F 74.1 °F 72% 30.17 in 10.0 mi South 9.2 mph - N/A   Clear
11:56 AM 85.1 °F 91.1 °F 72.1 °F 65% 30.16 in 10.0 mi South 13.8 mph - N/A   Partly Cloudy
12:58 PM 86.4 °F 92.2 °F 71.4 °F 61% 30.13 in 10.0 mi South 15.0 mph 23.0 mph N/A   Clear
1:58 PM 87.8 °F 92.2 °F 69.4 °F 54% 30.12 in 10.0 mi South 16.1 mph 23.0 mph N/A   Partly Cloudy
2:58 PM 89.6 °F 95.7 °F 70.7 °F 54% 30.10 in 10.0 mi South 15.0 mph 23.0 mph N/A   Clear
3:58 PM 88.9 °F 94.7 °F 70.9 °F 55% 30.06 in 10.0 mi South 11.5 mph - N/A   Clear
4:58 PM 90.9 °F 95.8 °F 69.1 °F 49% 30.05 in 10.0 mi South 16.1 mph - N/A   Partly Cloudy
5:58 PM 89.1 °F 92.9 °F 68.2 °F 50% 30.03 in 10.0 mi South 16.1 mph - N/A   Clear
6:58 PM 88.5 °F 91.6 °F 67.1 °F 49% 30.01 in 10.0 mi South 15.0 mph - N/A   Clear
7:58 PM 87.1 °F 89.5 °F 66.6 °F 50% 30.01 in 10.0 mi SSE 12.7 mph - N/A   Clear
8:58 PM 82.4 °F 84.6 °F 66.2 °F 58% 30.04 in 10.0 mi South 8.1 mph - N/A   Clear
9:58 PM 81.7 °F 84.2 °F 67.3 °F 61% 30.06 in 10.0 mi SSE 9.2 mph - N/A   Clear
10:58 PM 80.2 °F 82.8 °F 68.0 °F 66% 30.07 in 10.0 mi SSE 10.4 mph - N/A   Clear
11:58 PM 77.5 °F - 68.7 °F 74% 30.06 in 10.0 mi South 9.2 mph - N/A   Clear